#timestamp,LO_Frequency,Hit,StdDev 
1575162015.1,286047004.0,N
1575162016.0,286047004.0,N
1575162035.8,286047004.4,N
1575162055.6,286047002.3,N
1575162075.5,286047004.3,N
1575162095.3,286047003.8,N
1575162115.2,286047003.9,N
1575162135.9,286047002.4,N
1575162155.7,286047002.3,N
1575162175.6,286047002.5,N
1575162195.4,286047000.7,N
1575162215.2,286047002.8,N
1575162235.1,286047000.0,N
1575162236.0,286047000.0,N
1575162255.8,286047000.1,N
1575162275.7,286047002.7,N
1575162295.5,286047000.0,N
1575162315.3,286047000.1,N
1575162335.2,286047002.8,N
1575162355.9,286047001.5,N
1575162375.7,286047002.3,N
1575162395.6,286047001.0,N
1575162415.4,286046998.1,N
1575162435.3,286046999.9,N
1575162455.1,286046999.9,N
1575162456.0,286046999.9,N
1575162475.8,286047001.4,N
1575162495.7,286047003.8,N
1575162515.5,286047003.9,N
1575162535.3,286047003.5,N
1575162555.2,286047003.9,N
1575162575.0,286047004.4,N
1575162575.9,286047004.4,N
1575162595.8,286047002.7,N
1575162615.6,286047004.2,N
1575162635.4,286047001.6,N
1575162655.3,286047001.3,N
1575162675.1,286047003.9,N
1575162695.8,286047002.5,N
1575162715.7,286047001.4,N
1575162735.5,286047003.6,N
1575162755.4,286047003.9,N
1575162775.2,286047001.3,N
1575162795.0,286047001.8,N
1575162795.9,286047001.8,N
1575162815.8,286047001.6,N
1575162835.6,286047000.7,N
1575162855.4,286047003.8,N
1575162875.3,286047001.3,N
1575162895.1,286047002.0,N
1575162915.9,286047001.8,N
1575162935.7,286047002.5,N
1575162955.5,286047002.3,N
1575162975.4,286047003.2,N
1575162995.2,286047003.7,N
1575163015.0,286047003.6,N
1575163016.0,286047003.6,Y
1575163035.8,286047002.3,P
1575163055.6,286047002.5,P
1575163075.5,286047005.4,P
1575163095.3,286047011.9,Y
1575163115.1,286047000.2,P
1575163135.9,286047001.2,N
1575163155.7,286047000.8,N
1575163175.6,286046998.5,N
1575163195.4,286046998.5,N
1575163215.2,286047000.7,N
1575163235.1,286046999.3,N
1575163236.0,286046999.3,N
1575163255.8,286046999.5,N
1575163275.6,286046999.5,N
1575163295.5,286046998.3,N
1575163315.3,286046996.9,N
1575163335.2,286046998.2,N
1575163355.9,286046998.6,N
1575163375.7,286047000.6,N
1575163395.6,286046999.1,N
1575163415.4,286046999.5,N
1575163435.2,286046996.5,N
1575163455.1,286046996.6,N
1575163456.0,286046996.6,N
1575163475.8,286046999.6,N
1575163495.7,286046999.3,N
1575163515.5,286046999.3,N
1575163535.3,286046998.4,N
1575163555.2,286046999.5,N
1575163575.0,286047001.0,N
1575163575.9,286047001.0,N
1575163595.7,286047000.8,N
1575163615.6,286046999.3,N
1575163635.4,286046998.3,N
1575163655.3,286047000.9,N
1575163675.1,286047001.8,N
1575163695.8,286047004.0,N
1575163715.7,286046999.7,N
1575163735.5,286047001.1,N
1575163755.4,286047000.9,N
1575163775.2,286046998.8,N
1575163795.0,286046999.1,N
1575163795.9,286046999.1,N
1575163815.8,286046999.6,N
1575163835.6,286046998.5,N
1575163855.4,286046997.6,N
1575163875.3,286046997.7,N
1575163895.1,286046997.5,N
1575163915.9,286046995.9,N
1575163935.7,286046997.1,N
1575163955.5,286046996.5,N
1575163975.4,286046997.8,N
1575163995.2,286046999.5,N
1575164015.1,286046999.5,N
1575164016.0,286046999.5,N
1575164035.8,286046996.6,N
1575164055.6,286046997.9,N
1575164075.5,286046996.4,N
1575164095.3,286046996.1,N
1575164115.1,286046997.4,N
1575164135.9,286046997.4,N
1575164155.7,286046999.5,N
1575164175.6,286046996.6,N
1575164195.4,286046998.6,N
1575164215.2,286046998.8,N
1575164235.1,286046999.2,N
1575164236.0,286046999.2,N
1575164255.8,286047000.8,N
1575164275.6,286046999.6,N
1575164295.5,286046995.3,Y
1575164315.3,286046995.0,P
1575164335.2,286046995.3,N
1575164355.9,286046997.1,N
1575164375.7,286046997.4,N
1575164395.6,286046995.6,Y
1575164415.4,286046998.2,P
1575164435.3,286047001.2,N
1575164455.1,286047000.7,N
1575164456.0,286047000.7,N
1575164475.8,286046999.4,N
1575164495.7,286046998.1,N
1575164515.5,286047000.4,N
1575164535.3,286047000.3,N
1575164555.2,286047002.7,N
1575164575.0,286047000.1,N
1575164575.9,286047000.1,N
1575164595.8,286047001.2,N
1575164615.6,286046998.6,N
1575164635.4,286046998.5,N
1575164655.3,286046998.3,N
1575164675.1,286047002.8,N
1575164695.8,286047000.1,N
1575164715.7,286046998.2,N
1575164765.6,286047002.0,E
1575164775.5,286046999.8,N
1575164795.3,286046998.2,P
1575164815.2,286046997.7,N
1575164835.9,286046996.5,Y
1575164855.7,286047000.4,P
1575164875.6,286047000.5,N
1575164895.4,286047000.7,N
1575164915.2,286046998.8,N
1575164935.1,286046999.1,N
1575164936.0,286046999.1,N
1575164955.8,286046997.3,Y
1575164975.7,286046998.8,P
1575164995.5,286046996.5,P
1575165015.3,286046997.1,N
1575165035.2,286047000.1,N
1575165055.0,286046998.1,N
1575165055.9,286046998.1,N
1575165075.8,286046999.3,N
1575165095.6,286046998.4,N
1575165115.4,286047000.4,N
1575165135.3,286047000.1,N
1575165155.1,286047000.2,N
1575165175.8,286047001.0,N
1575165195.7,286047000.9,N
1575165215.5,286047000.8,N
1575165235.4,286046999.3,N
1575165255.2,286046998.9,N
1575165275.0,286046999.0,N
1575165275.9,286046999.0,N
1575165295.8,286047000.6,N
1575165315.6,286047002.2,N
1575165335.5,286046999.7,N
1575165355.3,286046999.8,N
1575165375.1,286047000.7,N
1575165395.9,286046998.9,N
1575165415.7,286046996.5,N
1575165435.5,286046996.9,N
1575165455.4,286046999.6,N
1575165475.2,286046998.9,N
1575165495.1,286046996.8,N
1575165496.0,286046996.8,N
1575165515.8,286046998.8,N
1575165535.6,286046998.8,N
1575165555.5,286046998.8,N
1575165575.3,286046999.2,N
1575165595.1,286046998.4,N
